Location: Bouchavesnes-Bergen
(49.9859°N, 2.9203°E)
Time: 05:09:44
(UTC+00:00)

Cosmos 1023 Rocket - Pass Details

Date: 09 March 2021
Orbit: 737 x 771 km, 74.1° (Epoch: 11 April)

Event Time Altitude Azimuth Distance (km) Brightness Sun altitude
Rises 04:54:27 0° 201° (SSW) 3,210 7.4 -13.7°
Reaches altitude 10° 04:56:48 10° 201° (SSW) 2,283 6.7 -13.3°
Maximum altitude 05:02:00 88° 114° (ESE) 761 4.5 -12.5°
Drops below altitude 10° 05:07:10 10° 24° (NNE) 2,276 7.4 -11.7°
Sets 05:09:32 0° 25° (NNE) 3,200 8.2 -11.3°
